Location: Grand Mazuras
(45.9128°N, 1.7636°E)
Time: 18:11:58
(UTC+00:00)

Cosmos 2058 - Pass Details

Date: 18 April 2021
Orbit: 561 x 583 km, 82.5° (Epoch: 12 May)

Event Time Altitude Azimuth Distance (km) Brightness Sun altitude
Rises 20:23:36 0° 347° (NNW) 2,811 7.2 -16.3°
Reaches altitude 10° 20:25:50 10° 343° (NNW) 1,904 6.4 -16.6°
Maximum altitude 20:29:57 55° 266° (W) 697 3.5 -17.2°
Enters shadow 20:33:20 14° 190° (S) 1,615 4.9 -17.6°
